Wind_Speed
19 18 18 18 19 20 23 21 23 22 20 20 20 18 15 16 14 12 9 10 10 7 5 6 5 5 7 8 7 6 5 4 4 4 3 4 3 3 3 2 2 2 3 4 5 6 5 5 8
18 19 18 19 19 21 23 22 23 25 22 21 21 21 20 17 17 18 18 15 15 13 9 7 7 7 8 8 9 9 6 6 6 5 5 6 5 5 6 4 5 4 4 4 5 7 7 7 9
17 16 18 19 21 22 24 24 24 24 25 25 25 26 25 23 20 18 17 15 15 17 19 17 13 10 9 10 9 9 8 7 8 8 7 8 8 8 8 7 6 6 6 6 7 8 8 8 9
17 15 16 20 21 23 24 25 25 27 28 28 26 28 26 26 25 24 22 20 19 18 19 19 20 19 14 13 12 11 11 10 10 12 12 12 12 11 11 10 9 8 8 8 9 10 10 10 9
15 13 14 18 21 22 23 23 23 26 28 28 28 29 30 31 29 28 27 26 28 26 26 24 23 23 21 17 15 15 14 14 12 14 15 16 16 15 14 14 13 12 11 12 12 11 11 11 11
15 14 16 20 21 23 24 24 25 26 28 30 29 28 29 30 31 32 32 29 29 29 27 26 25 25 25 25 22 19 19 16 16 15 15 17 17 17 16 16 16 16 15 15 15 13 13 13 13
15 14 14 20 25 26 27 28 29 30 32 34 35 35 34 34 35 35 36 35 35 35 34 31 31 30 30 31 30 27 23 22 20 19 18 18 20 19 19 18 18 18 18 18 18 17 16 16 15
18 18 18 20 24 26 27 30 32 32 33 35 36 38 38 39 40 40 41 41 41 39 37 37 37 38 38 37 36 34 31 28 26 25 24 22 22 22 22 21 21 20 20 20 20 20 19 19 18
26 25 26 24 26 29 30 31 33 33 33 33 35 36 37 38 40 40 40 41 41 41 41 39 38 37 38 39 41 40 38 37 35 33 30 27 25 25 25 25 25 24 23 22 23 23 22 21 21
26 32 32 29 30 32 33 33 35 37 37 37 39 40 40 42 42 42 42 43 44 46 46 46 44 41 39 39 41 44 44 43 42 40 38 35 31 29 29 29 28 28 26 24 25 24 24 23 23
21 26 28 29 27 26 30 32 34 36 38 40 41 44 44 44 45 46 47 48 48 49 49 50 51 49 46 43 43 44 47 47 46 46 44 42 40 36 33 32 32 31 30 29 27 26 26 25 24
15 19 22 22 22 21 24 27 27 29 32 37 39 39 38 37 39 44 47 47 45 48 50 52 55 55 54 51 48 47 47 49 50 49 48 46 44 43 40 37 36 35 35 33 31 30 29 28 27
11 13 17 19 20 20 23 24 27 29 29 31 31 29 27 27 29 33 38 42 45 48 49 53 55 57 57 57 54 53 53 52 51 52 50 49 49 47 45 44 41 39 39 38 36 34 33 31 29
10 13 15 18 20 22 23 24 25 31 31 30 29 27 28 29 31 32 36 40 45 49 52 55 57 59 59 57 58 58 58 58 56 54 55 53 51 50 47 48 46 44 44 42 39 37 36 36 34
11 12 13 16 18 20 21 26 30 33 32 31 34 35 36 40 42 44 42 42 43 46 51 56 62 62 62 65 62 58 61 62 62 59 58 59 56 54 51 51 51 49 48 46 43 42 39 39 38
13 15 18 19 21 23 25 21 30 36 40 38 38 41 43 43 45 45 46 46 43 43 45 50 55 59 63 63 66 67 63 61 65 63 63 62 61 59 56 54 53 55 54 50 47 46 44 42 41
17 18 19 21 27 29 32 29 32 35 38 40 42 45 45 45 46 45 45 45 45 46 44 44 48 52 59 65 68 68 68 66 62 65 65 64 64 63 62 58 56 56 56 54 52 50 49 47 45
21 22 24 25 28 31 32 34 32 35 39 40 43 45 46 45 44 42 44 46 47 46 47 47 43 43 45 58 64 67 68 65 65 64 67 68 68 67 66 64 61 58 55 56 55 53 53 52 50
25 28 29 30 35 37 35 37 36 36 40 41 42 44 44 43 43 42 42 44 44 44 42 43 43 45 45 45 54 61 63 61 60 65 61 68 68 68 69 66 64 63 58 58 58 56 54 52 53
33 36 36 38 40 44 43 41 41 40 42 43 45 46 47 48 46 44 43 43 43 42 41 39 41 34 36 40 44 54 56 58 65 62 63 62 64 67 69 68 64 62 60 60 59 57 57 54 54
38 41 44 47 46 45 48 46 45 44 44 43 46 47 47 47 46 45 43 42 41 40 40 37 36 33 32 35 36 46 46 46 52 57 60 58 59 62 66 68 65 62 60 59 61 60 56 56 57
41 44 48 48 50 50 47 54 49 47 46 46 46 45 46 46 47 47 45 43 42 38 39 37 34 35 37 38 36 38 40 36 39 39 43 47 47 52 55 63 68 64 60 58 60 56 58 54 57
44 46 49 49 50 53 50 48 49 49 44 44 43 43 43 44 43 44 44 44 41 39 39 38 36 35 36 35 34 29 36 33 36 34 33 36 42 45 51 53 61 63 60 58 59 59 59 58 50
47 47 48 49 50 48 47 47 46 45 45 45 45 44 43 44 45 46 45 45 42 38 36 35 35 34 31 25 28 27 25 30 37 27 27 31 39 45 48 49 52 58 60 58 56 60 58 59 57
46 47 47 47 48 47 48 49 46 49 49 49 46 48 50 50 50 50 49 47 45 39 36 33 31 33 27 24 26 25 25 31 33 32 30 29 30 35 44 49 48 49 52 55 57 56 59 59 58
43 43 44 46 49 52 50 53 52 48 47 49 53 53 52 50 50 49 48 46 42 38 32 28 30 29 30 27 25 29 27 26 27 29 28 28 29 29 32 38 46 50 50 51 53 55 56 57 57
43 45 48 50 51 53 54 54 52 50 53 50 50 50 46 43 43 40 38 38 36 34 32 30 33 31 28 28 26 30 27 26 26 26 27 26 25 25 27 31 35 37 41 46 51 53 57 57 58
46 48 49 50 55 57 57 55 48 47 47 43 43 42 40 37 35 34 31 34 38 34 34 36 31 34 28 28 25 26 24 22 22 23 25 24 24 26 24 23 27 29 29 34 38 43 50 52 56
50 53 54 54 55 56 54 51 44 39 38 40 41 38 34 32 31 31 31 32 36 38 35 44 32 31 32 33 27 25 24 21 22 22 22 23 26 29 26 26 25 27 30 29 31 36 41 44 49
55 55 53 52 49 47 48 46 35 34 37 38 39 33 24 21 18 25 30 33 30 34 36 32 38 36 34 33 31 27 20 19 20 23 22 22 23 23 26 28 25 25 24 28 29 29 30 37 37
Wind_Direction
206 207 209 212 214 223 235 226 230 235 243 248 255 257 254 260 255 243 230 225 233 233 225 218 246 252 276 286 273 247 261 270 270 275 290 307 289 270 239 221 238 245 277 284 283 291 297 307 316
213 211 215 220 223 225 238 237 229 240 241 247 252 256 255 249 258 279 298 302 278 263 252 246 242 236 247 254 259 261 252 270 251 261 280 288 279 263 251 236 225 240 252 272 278 282 284 298 307
218 225 224 231 232 233 239 243 242 239 245 248 252 258 262 267 262 270 279 300 303 293 303 306 285 257 238 240 237 230 240 255 255 244 251 274 278 265 260 250 254 249 248 253 265 273 283 291 302
215 219 228 234 235 236 240 243 248 248 241 247 254 260 265 268 273 276 277 284 296 302 301 294 292 288 276 253 249 236 235 253 264 263 258 251 255 259 257 259 254 255 257 254 262 271 276 285 293
201 211 225 237 237 238 241 244 247 253 257 253 252 258 263 267 271 274 278 282 284 287 288 289 281 283 283 275 261 251 246 250 262 267 270 260 248 251 251 257 261 258 257 263 264 269 275 281 284
208 221 234 242 246 248 249 251 251 251 258 264 262 257 258 260 262 266 267 268 271 274 276 279 277 276 277 279 275 267 258 256 254 262 268 266 251 245 250 252 258 260 259 261 268 271 271 272 277
234 237 250 250 245 247 252 253 253 252 253 257 263 264 265 264 265 266 269 270 271 273 274 272 273 270 273 274 275 270 267 266 265 258 259 265 262 257 251 250 252 259 262 263 266 267 265 268 273
256 257 260 267 259 255 257 260 259 257 256 256 258 261 263 266 267 269 269 269 269 269 269 268 268 270 272 271 271 271 269 266 267 267 261 257 263 264 259 256 253 253 258 262 263 264 264 266 270
254 259 262 269 267 265 263 263 265 265 263 263 262 262 264 264 265 263 263 267 269 269 267 266 265 264 266 269 270 268 267 267 267 266 265 261 259 262 263 260 256 253 252 255 259 260 262 266 270
249 255 265 269 265 266 269 269 270 270 270 269 269 269 268 269 269 270 270 268 269 270 271 271 269 263 261 260 262 264 266 265 266 266 266 262 258 255 258 261 260 254 253 255 257 260 262 263 266
250 253 260 264 270 269 265 264 267 269 270 268 267 265 265 266 268 269 270 269 266 263 264 266 268 269 266 261 259 258 260 263 264 263 262 262 262 258 256 257 258 257 253 253 256 259 261 263 265
251 252 256 258 263 267 266 267 271 269 267 271 271 272 273 271 269 270 270 270 269 267 268 266 265 265 263 261 259 259 257 257 260 261 260 257 256 257 254 253 254 256 256 256 257 259 261 263 264
291 285 281 281 282 278 278 278 275 274 272 270 270 271 272 273 275 277 278 278 279 278 274 271 268 265 264 262 259 256 256 256 255 259 258 257 255 253 253 253 252 252 254 255 255 258 261 263 264
303 302 300 294 287 280 276 274 274 278 279 278 277 274 273 273 273 274 277 280 282 283 284 284 283 280 276 270 265 258 254 253 254 254 257 256 255 253 250 251 251 252 253 253 254 255 258 261 263
320 318 313 307 305 296 285 275 271 270 267 265 268 273 276 278 281 281 280 281 278 278 279 280 282 280 279 278 274 267 260 255 252 250 253 255 255 254 252 249 250 250 252 254 255 256 256 259 262
322 317 319 318 313 307 301 290 274 273 273 272 271 274 275 278 280 282 285 282 278 275 276 280 280 279 279 275 273 272 264 258 254 250 249 252 254 253 251 251 249 247 249 250 252 254 255 256 259
315 315 313 308 306 310 306 304 294 282 277 272 268 268 270 273 277 280 279 280 282 281 281 279 279 278 277 273 272 268 267 263 257 251 246 244 248 252 252 251 249 250 249 249 248 249 251 254 256
303 303 302 299 296 301 301 302 296 287 285 279 272 270 271 273 272 274 276 281 284 286 287 289 290 289 279 272 269 269 268 266 263 254 248 244 243 246 249 250 250 249 249 250 250 249 250 252 255
297 297 298 297 297 299 297 298 295 288 287 286 283 279 277 274 274 275 274 279 281 286 290 294 296 298 297 276 263 264 267 263 263 263 256 246 243 243 245 246 247 249 248 249 249 250 251 252 255
300 301 300 300 298 301 300 300 299 294 289 289 290 289 287 285 283 280 279 280 283 285 289 291 293 291 286 284 271 255 260 264 262 257 260 253 246 243 243 243 244 246 247 249 252 254 253 253 255
302 301 302 302 301 300 300 299 297 293 289 289 287 287 285 284 283 282 282 282 286 286 289 289 285 283 293 297 282 259 258 265 273 272 261 262 259 251 246 246 244 243 244 247 249 251 253 256 255
299 301 301 302 301 300 301 300 300 296 297 296 295 293 290 290 288 287 287 287 287 289 288 285 272 276 284 294 289 266 263 267 258 278 279 263 260 254 252 245 244 244 244 243 246 252 250 252 257
303 303 301 301 299 299 301 300 300 301 302 299 297 293 291 288 285 284 285 284 285 291 287 281 274 271 281 295 285 266 266 263 269 276 278 256 252 252 252 249 246 244 244 244 243 245 250 251 254
304 303 301 300 300 301 300 300 299 302 300 299 297 294 289 285 286 287 287 286 286 287 283 279 282 276 274 281 270 254 255 260 267 276 270 262 249 248 253 253 249 246 244 247 246 244 245 247 251
307 305 304 304 304 303 303 301 304 302 301 299 298 294 292 290 289 287 286 285 285 283 276 271 267 266 263 259 260 267 274 256 276 279 268 260 254 253 254 254 255 253 250 248 248 249 247 246 250
309 308 306 305 303 302 301 302 302 300 300 296 294 293 294 292 290 289 287 284 280 271 264 259 255 253 256 251 248 251 260 257 262 264 266 265 262 259 255 260 262 260 256 252 249 249 251 250 251
308 306 304 302 300 299 301 301 299 302 298 297 296 293 290 291 289 286 282 278 270 261 247 244 241 247 247 255 250 255 255 260 263 271 278 275 268 264 259 256 260 262 261 261 258 252 250 251 252
309 307 307 307 304 303 302 300 306 300 299 297 292 292 293 290 286 285 285 278 266 258 245 245 239 229 240 243 246 251 257 262 266 268 270 277 278 273 265 252 246 252 258 258 256 259 253 250 252
311 310 309 306 303 303 304 306 312 304 300 294 293 293 290 287 290 294 290 283 272 256 247 245 233 226 233 239 238 246 251 261 269 276 283 285 283 276 270 262 258 257 254 253 257 256 255 253 251
310 310 307 305 306 302 305 305 308 302 296 296 296 293 285 291 307 300 291 289 280 254 245 250 227 218 225 241 245 249 263 278 279 277 281 287 284 282 277 267 263 261 269 258 252 255 252 254 250
Height
5888 5890 5892 5894 5898 5895 5893 5897 5899 5900 5903 5905 5907 5908 5910 5911 5912 5913 5909 5909 5909 5908 5908 5910 5911 5912 5912 5911 5911 5911 5912 5913 5913 5914 5913 5912 5911 5911 5911 5910 5911 5911 5911 5912 5912 5913 5913 5913 5914
5886 5888 5890 5891 5893 5893 5892 5894 5898 5899 5901 5902 5904 5905 5906 5908 5909 5910 5910 5911 5910 5909 5908 5908 5910 5910 5910 5911 5911 5910 5910 5911 5912 5912 5911 5911 5911 5910 5910 5909 5909 5909 5909 5909 5909 5910 5910 5911 5911
5884 5886 5888 5888 5889 5890 5890 5892 5895 5898 5899 5900 5901 5902 5902 5905 5907 5908 5908 5908 5909 5909 5909 5910 5909 5909 5908 5908 5908 5907 5908 5909 5909 5910 5910 5910 5909 5908 5908 5907 5907 5907 5907 5907 5906 5907 5907 5908 5909
5882 5885 5887 5885 5887 5888 5888 5890 5892 5894 5896 5897 5899 5900 5901 5901 5902 5904 5905 5906 5906 5906 5906 5906 5907 5907 5907 5908 5907 5906 5905 5906 5906 5907 5907 5907 5907 5906 5906 5905 5905 5905 5904 5904 5904 5904 5904 5905 5906
5880 5883 5883 5882 5883 5885 5886 5887 5889 5890 5891 5893 5895 5897 5897 5896 5897 5898 5899 5900 5901 5902 5902 5902 5903 5903 5903 5904 5904 5904 5903 5903 5903 5904 5903 5904 5904 5903 5903 5902 5902 5902 5901 5901 5901 5901 5902 5902 5903
5878 5880 5881 5879 5880 5881 5883 5884 5886 5887 5887 5887 5889 5891 5893 5893 5893 5893 5893 5895 5896 5897 5898 5899 5899 5899 5899 5898 5899 5900 5900 5899 5898 5899 5899 5899 5899 5899 5898 5899 5899 5899 5898 5898 5898 5899 5899 5899 5899
5876 5877 5877 5876 5876 5877 5878 5879 5881 5882 5882 5881 5882 5883 5886 5886 5887 5888 5888 5890 5890 5891 5892 5893 5893 5894 5893 5894 5894 5895 5896 5896 5895 5895 5895 5895 5895 5895 5893 5893 5894 5895 5895 5894 5895 5896 5896 5896 5896
5872 5873 5873 5874 5872 5872 5873 5873 5875 5875 5876 5877 5876 5876 5878 5879 5880 5880 5881 5882 5882 5883 5885 5886 5887 5886 5887 5887 5888 5889 5890 5891 5891 5891 5891 5891 5891 5891 5890 5890 5890 5890 5890 5891 5891 5891 5892 5892 5892
5867 5869 5869 5870 5869 5867 5867 5868 5869 5870 5870 5870 5870 5871 5871 5872 5872 5872 5873 5874 5875 5875 5875 5877 5878 5880 5880 5880 5880 5882 5883 5883 5883 5884 5885 5885 5885 5886 5886 5885 5885 5886 5886 5886 5886 5886 5887 5888 5887
5865 5865 5864 5865 5864 5863 5864 5865 5864 5864 5863 5863 5863 5864 5863 5863 5865 5865 5866 5868 5868 5867 5868 5869 5870 5871 5873 5874 5873 5873 5874 5875 5876 5877 5878 5879 5879 5879 5879 5879 5880 5881 5881 5881 5881 5881 5882 5882 5882
5860 5861 5860 5861 5860 5860 5859 5858 5858 5857 5856 5855 5855 5854 5855 5856 5855 5854 5854 5855 5857 5858 5859 5859 5859 5860 5863 5865 5865 5865 5865 5865 5866 5868 5869 5871 5872 5873 5872 5872 5873 5874 5875 5875 5875 5875 5876 5876 5877
5856 5855 5854 5854 5855 5854 5853 5851 5851 5850 5850 5847 5847 5847 5847 5847 5846 5845 5845 5844 5844 5845 5846 5847 5848 5849 5850 5853 5855 5856 5857 5856 5856 5857 5858 5860 5862 5863 5864 5865 5865 5867 5868 5869 5869 5869 5869 5869 5871
5850 5850 5849 5848 5849 5849 5847 5846 5844 5842 5842 5842 5841 5841 5840 5839 5838 5837 5836 5835 5834 5832 5833 5833 5834 5837 5838 5840 5844 5845 5845 5845 5847 5847 5848 5849 5851 5853 5855 5856 5857 5858 5859 5860 5862 5863 5863 5863 5864
5848 5847 5847 5845 5845 5844 5844 5842 5840 5836 5836 5835 5834 5834 5833 5833 5831 5831 5829 5828 5825 5822 5820 5819 5819 5820 5823 5827 5829 5831 5833 5834 5835 5837 5837 5839 5841 5842 5845 5846 5848 5850 5851 5852 5854 5855 5856 5856 5857
5845 5845 5844 5841 5839 5838 5839 5839 5835 5832 5831 5832 5828 5828 5826 5823 5822 5820 5821 5820 5818 5815 5812 5808 5805 5806 5807 5806 5810 5815 5818 5820 5823 5825 5825 5826 5829 5832 5835 5836 5838 5840 5841 5843 5846 5847 5848 5848 5849
5841 5840 5837 5835 5834 5833 5832 5834 5829 5826 5823 5824 5823 5820 5817 5814 5811 5810 5807 5807 5807 5806 5805 5801 5796 5794 5791 5791 5791 5794 5799 5803 5806 5811 5813 5815 5817 5819 5821 5824 5827 5828 5830 5833 5836 5838 5839 5840 5841
5836 5835 5833 5831 5826 5825 5822 5824 5821 5817 5815 5815 5814 5812 5810 5807 5802 5800 5798 5796 5794 5792 5792 5792 5789 5785 5780 5777 5775 5775 5778 5783 5790 5792 5796 5799 5802 5806 5809 5812 5815 5817 5819 5822 5825 5827 5829 5831 5831
5831 5829 5828 5826 5824 5820 5818 5815 5814 5810 5806 5805 5803 5802 5800 5797 5794 5792 5788 5786 5783 5780 5777 5776 5775 5772 5770 5765 5762 5759 5761 5763 5766 5773 5778 5782 5787 5790 5794 5799 5802 5805 5809 5811 5814 5817 5818 5821 5823
5825 5823 5822 5819 5815 5812 5811 5808 5805 5802 5797 5793 5790 5789 5787 5786 5785 5782 5779 5776 5774 5769 5767 5764 5761 5756 5754 5752 5750 5747 5746 5747 5750 5752 5760 5765 5771 5774 5778 5784 5789 5792 5798 5800 5802 5805 5808 5812 5813
5816 5813 5811 5809 5805 5801 5799 5797 5793 5790 5785 5781 5777 5774 5772 5771 5770 5770 5768 5766 5762 5759 5755 5752 5749 5747 5743 5740 5739 5736 5736 5732 5732 5740 5742 5750 5755 5761 5763 5768 5775 5780 5784 5788 5791 5794 5798 5801 5802
5807 5803 5800 5797 5796 5792 5786 5785 5783 5779 5774 5770 5766 5763 5760 5758 5756 5755 5753 5752 5749 5746 5744 5741 5738 5735 5734 5731 5729 5727 5726 5724 5722 5723 5730 5737 5742 5747 5752 5755 5760 5765 5770 5776 5778 5781 5786 5790 5790
5800 5796 5791 5788 5783 5780 5779 5770 5769 5764 5761 5758 5754 5750 5747 5744 5741 5740 5739 5738 5735 5734 5733 5730 5729 5727 5725 5722 5720 5719 5718 5717 5712 5715 5718 5724 5729 5734 5737 5740 5745 5751 5756 5762 5766 5768 5773 5777 5779
5792 5787 5781 5776 5772 5768 5765 5762 5757 5751 5749 5745 5743 5739 5735 5732 5730 5727 5725 5725 5723 5722 5720 5719 5718 5717 5716 5715 5713 5712 5710 5710 5713 5711 5710 5711 5716 5720 5723 5727 5731 5737 5743 5748 5752 5756 5760 5765 5768
5781 5775 5772 5766 5761 5758 5754 5750 5748 5742 5737 5734 5731 5728 5725 5722 5718 5715 5713 5713 5713 5711 5710 5709 5709 5707 5707 5707 5706 5705 5705 5707 5705 5704 5703 5703 5705 5709 5711 5715 5719 5724 5729 5734 5738 5741 5746 5751 5754
5772 5765 5759 5756 5750 5747 5742 5739 5738 5731 5726 5721 5717 5713 5710 5708 5706 5704 5702 5701 5701 5700 5700 5700 5700 5700 5699 5700 5701 5700 5701 5700 5697 5698 5698 5697 5698 5700 5703 5705 5708 5711 5717 5722 5726 5729 5734 5738 5741
5761 5756 5751 5744 5740 5737 5733 5727 5724 5720 5714 5709 5703 5698 5696 5693 5691 5688 5688 5689 5689 5688 5688 5690 5691 5691 5691 5693 5694 5693 5693 5692 5692 5692 5692 5691 5692 5693 5694 5696 5698 5701 5704 5709 5713 5718 5722 5727 5731
5753 5748 5741 5734 5731 5725 5722 5717 5712 5709 5701 5694 5689 5685 5682 5680 5677 5675 5673 5674 5675 5676 5678 5679 5681 5682 5683 5686 5686 5688 5687 5687 5687 5687 5687 5686 5687 5687 5686 5687 5689 5689 5691 5694 5698 5705 5709 5714 5718
5743 5737 5730 5723 5714 5709 5707 5703 5704 5695 5686 5682 5677 5674 5670 5667 5665 5664 5664 5664 5664 5665 5668 5667 5670 5670 5675 5678 5680 5682 5682 5682 5682 5680 5679 5679 5679 5679 5680 5679 5680 5680 5681 5683 5686 5690 5695 5701 5705
5732 5724 5717 5710 5703 5694 5689 5692 5688 5682 5675 5669 5664 5663 5660 5658 5656 5655 5654 5653 5652 5654 5656 5657 5661 5662 5668 5671 5673 5675 5676 5677 5676 5675 5675 5674 5673 5673 5673 5672 5672 5672 5673 5674 5675 5678 5683 5689 5693
5722 5715 5706 5696 5692 5682 5679 5677 5679 5671 5664 5659 5656 5653 5652 5651 5649 5647 5644 5642 5641 5643 5646 5648 5650 5654 5659 5664 5668 5670 5673 5672 5671 5671 5671 5669 5667 5666 5665 5665 5665 5665 5666 5666 5667 5668 5671 5675 5681